This demonstration page uses our WeatherBlox Daily Observations layout. Learn more.

Left ArrowRight Arrow

38.20091, -84.87328

Hourly Observations for July 28, 2017

Temp ( °F °C ) Dew Point ( °F °C ) Humidity (%) Winds ( mph kmh ) Pressure ( in mb ) Visibility ( mi km ) Precip ( " mm )
12:53 am 00:53 Mostly Clear 74 23.3 69 20.6 85 85 S 3 6 29.84 1010 10 16 0.00 0.00
1:53 am 01:53 Cloudy 74 23.3 69 20.6 85 85 Calm 29.83 1010 10 16 0.00 0.00
2:53 am 02:53 Mostly Cloudy 74 23.3 70 21.1 88 88 Calm 29.83 1010 10 16 0.00 0.00
3:53 am 03:53 Cloudy 73 22.8 69 20.6 87 87 S 5 7 29.82 1010 10 16 0.00 0.00
4:53 am 04:53 Clear 73 22.8 69 20.6 87 87 Calm 29.80 1009 10 16 0.00 0.00
5:16 am 05:16 Mostly Cloudy 73 22.8 69 20.6 87 87 Calm 29.80 1009 10 16 0.00 0.00
5:53 am 05:53 Cloudy 73 22.8 70 21.1 90 90 Calm 29.81 1010 10 16 0.00 0.00
6:53 am 06:53 Cloudy 73 22.8 69 20.6 87 87 S 5 7 29.81 1010 10 16 0.00 0.00
7:53 am 07:53 Cloudy 73 22.8 70 21.1 90 90 S 5 7 29.80 1009 10 16 0.00 0.00
8:53 am 08:53 Mostly Cloudy 75 23.9 70 21.1 84 84 SSW 3 6 29.81 1009 10 16 0.00 0.00
9:28 am 09:28 Cloudy 75 23.9 70 21.1 84 84 W 3 6 29.80 1009 10 16 0.00 0.00
9:53 am 09:53 Cloudy 76 24.4 71 21.7 85 85 WSW 5 7 29.80 1009 10 16 0.00 0.00
10:02 am 10:02 Cloudy 76 24.4 71 21.7 85 85 WSW 7 11 29.80 1009 10 16 0.00 0.00
10:10 am 10:10 Cloudy 76 24.4 71 21.7 85 85 WSW 5 7 29.80 1009 10 16 0.00 0.00
10:23 am 10:23 Cloudy with Rain 75 23.9 71 21.7 88 88 SSW 6 9 29.80 1009 2 3 0.04 1.02
10:30 am 10:30 Cloudy with Rain 75 23.9 71 21.7 88 88 Calm 29.80 1009 1 2 0.06 1.52
10:34 am 10:34 Cloudy with Light Rain 75 23.9 71 21.7 88 88 Calm 29.80 1009 3 4 0.06 1.52
10:41 am 10:41 Cloudy with Light Rain 75 23.9 72 22.2 90 90 S 3 6 29.80 1009 5 8 0.06 1.52
10:53 am 10:53 Cloudy 76 24.4 72 22.2 88 88 Calm 29.79 1009 9 14 0.06 1.52
11:00 am 11:00 Cloudy 77 25 73 22.8 88 88 Calm 29.77 1008 10 16 0.00 0.00
11:16 am 11:16 Cloudy 77 25 72 22.2 85 85 Calm 29.77 1008 10 16 0.00 0.00
11:36 am 11:36 Cloudy 78 25.6 71 21.7 79 79 Calm 29.77 1008 10 16 0.00 0.00
11:53 am 11:53 Cloudy 77 25 72 22.2 85 85 Calm 29.78 1009 10 16 0.00 0.00
12:24 pm 12:24 Cloudy with Light Rain 77 25 72 22.2 85 85 WSW 3 6 29.77 1008 5 8 0.00 0.03
12:35 pm 12:35 Cloudy with Nearby Thunderstorms 77 25 73 22.8 88 88 WSW 5 7 29.77 1008 9 14 0.00 0.03
12:44 pm 12:44 Cloudy 77 25 72 22.2 85 85 WSW 3 6 29.77 1008 9 14 0.00 0.03
12:53 pm 12:53 Cloudy with Light Rain 76 24.4 72 22.2 88 88 N 7 11 29.78 1008 5 8 0.00 0.03
12:56 pm 12:56 Cloudy with Nearby Thunderstorms 76 24.4 72 22.2 88 88 N 10 17 29.77 1008 3 5 0.02 0.51
12:59 pm 12:59 Cloudy with Nearby Thunderstorms 75 23.9 71 21.7 88 88 N 10 17 29.77 1008 2 3 0.04 1.02
1:06 pm 13:06 Cloudy with Nearby Thunderstorms 74 23.3 70 21.1 88 88 NNE 7 11 29.77 1008 2 2 0.08 2.03
1:14 pm 13:14 Cloudy with Heavy Rain 73 22.8 70 21.1 90 90 NNE 8 13 29.77 1008 2 2 0.14 3.56
1:25 pm 13:25 Cloudy with Rain 73 22.8 70 21.1 90 90 NNE 7 11 29.77 1008 2 3 0.19 4.83
1:32 pm 13:32 Cloudy with Rain 74 23.3 70 21.1 88 88 N 7 11 29.77 1008 4 6 0.21 5.33
1:39 pm 13:39 Cloudy with Thunderstorms 74 23.3 70 21.1 88 88 VRB 6 9 29.80 1009 6 10 0.21 5.33
1:53 pm 13:53 Mostly Cloudy with Nearby Thunderstorms 74 23.3 70 21.1 88 88 NNE 6 9 29.79 1009 10 16 0.21 5.33
2:04 pm 14:04 Cloudy 75 23.9 71 21.7 88 88 N 5 7 29.77 1008 10 16 0.00 0.03
2:33 pm 14:33 Cloudy 78 25.6 71 21.7 79 79 NNE 7 11 29.77 1008 10 16 0.00 0.03
2:41 pm 14:41 Cloudy 78 25.6 71 21.7 79 79 N 8 13 29.77 1008 10 16 0.00 0.03
2:53 pm 14:53 Cloudy 79 26.1 71 21.7 77 77 N 10 17 29.78 1008 10 16 0.00 0.03
3:00 pm 15:00 Cloudy 79 26.1 71 21.7 77 77 N 12 19 29.77 1008 10 16 0.00 0.00
3:15 pm 15:15 Cloudy 79 26.1 71 21.7 77 77 N 9 15 29.77 1008 10 16 0.00 0.00
3:53 pm 15:53 Cloudy 81 27.2 68 20 65 65 NNE 10 17 29.78 1008 10 16 0.00 0.00
4:53 pm 16:53 Mostly Cloudy 84 28.9 69 20.6 61 61 N 9 15 29.76 1008 10 16 0.00 0.00
5:53 pm 17:53 Sunny 84 28.9 66 18.9 55 55 N 8 13 29.75 1008 10 16 0.00 0.00
6:53 pm 18:53 Mostly Sunny 83 28.3 67 19.4 59 59 N 12 19 29.77 1008 10 16 0.00 0.00
7:53 pm 19:53 Sunny 81 27.2 67 19.4 62 62 NNW 7 11 29.78 1009 10 16 0.00 0.00
8:53 pm 20:53 Clear 78 25.6 64 17.8 62 62 N 9 15 29.81 1009 10 16 0.00 0.00
9:53 pm 21:53 Clear 75 23.9 64 17.8 69 69 N 8 13 29.83 1010 10 16 0.00 0.00
10:53 pm 22:53 Clear 73 22.8 63 17.2 71 71 NNW 9 15 29.84 1010 10 16 0.00 0.00
11:53 pm 23:53 Clear 72 22.2 63 17.2 73 73 N 8 13 29.84 1011 10 16 0.00 0.00

Powered by AerisWeather